WE0DX-1 Weather Reports


Display with metric or nautical units.
time (UTC)temp
F
wind
direction
speed
MPH
gust
MPH
rain 1hr
in
rain 24hr
in
rain mn
in
humidity
%
barometer
mb
20260831074147 86 132 1.0 5.0 0.00 0.00 0.00 48 1012.3
20260831073642 86 98 0.0 6.0 0.00 0.00 0.00 48 1012.3
20260831073141 86 104 0.0 0.0 0.00 0.00 0.00 48 1012.0
20260831072637 86 119 0.0 2.0 0.00 0.00 0.00 47 1012.2
20260831072133 86 194 0.0 0.0 0.00 0.00 0.00 47 1012.1
20260831071632 86 142 0.0 1.0 0.00 0.00 0.00 47 1012.2
20260831071127 86 119 0.0 0.0 0.00 0.00 0.00 47 1012.1
20260831070626 86 117 0.0 1.0 0.00 0.00 0.00 47 1012.2
20260831070116 86 134 0.0 0.0 0.00 0.00 0.00 46 1011.9
20260831065614 86 163 0.0 0.0 0.00 0.00 0.00 46 1012.2
20260831065108 86 149 0.0 0.0 0.00 0.00 0.00 46 1012.2
20260831064604 86 128 0.0 0.0 0.00 0.00 0.00 46 1012.0
20260831064059 87 106 0.0 0.0 0.00 0.00 0.00 46 1012.2
20260831063554 87 170 0.0 0.0 0.00 0.00 0.00 46 1011.9
20260831063049 87 143 0.0 5.0 0.00 0.00 0.00 46 1011.9
20260831062544 87 119 0.0 0.0 0.00 0.00 0.00 46 1011.9
20260831062043 87 114 0.0 0.0 0.00 0.00 0.00 46 1011.9
20260831061541 87 128 5.0 8.0 0.00 0.00 0.00 46 1011.7
20260831061038 87 183 1.0 6.0 0.00 0.00 0.00 46 1011.8
20260831060532 87 109 0.0 0.0 0.00 0.00 0.00 45 1012.0
20260831060027 87 154 3.0 5.0 0.00 0.00 0.00 45 1011.9
20260831055522 87 149 3.0 3.0 0.00 0.00 0.00 45 1011.9
20260831055017 88 104 0.0 6.0 0.00 0.00 0.00 45 1011.9
20260831054512 88 97 1.0 8.0 0.00 0.00 0.00 45 1011.8
20260831054011 88 139 3.0 6.0 0.00 0.00 0.00 45 1011.5
20260831053509 88 119 0.0 0.0 0.00 0.00 0.00 44 1011.7
20260831053004 88 61 1.0 3.0 0.00 0.00 0.00 45 1011.6
20260831052457 88 144 0.0 0.0 0.00 0.00 0.00 44 1011.6
20260831051956 89 120 3.0 7.0 0.00 0.00 0.00 44 1011.5
20260831051454 89 149 3.0 11.0 0.00 0.00 0.00 44 1011.5
20260831050949 89 163 0.0 0.0 0.00 0.00 0.00 44 1011.4
20260831050449 89 122 2.0 7.0 0.00 0.00 0.00 44 1011.6
20260831045947 89 224 1.0 2.0 0.00 0.00 0.00 44 1011.6
20260831045447 89 159 0.0 0.0 0.00 0.00 0.00 44 1011.5
20260831044942 89 150 0.0 0.0 0.00 0.00 0.00 44 1011.7
20260831044437 89 172 2.0 6.0 0.00 0.00 0.00 44 1011.5
20260831043932 89 154 4.0 9.0 0.00 0.00 0.00 44 1011.5
20260831043427 89 141 1.0 8.0 0.00 0.00 0.00 45 1011.5
20260831042922 89 174 0.0 0.0 0.00 0.00 0.00 45 1011.5
20260831042421 89 160 3.0 7.0 0.00 0.00 0.00 45 1011.5
20260831041911 89 132 2.0 9.0 0.00 0.00 0.00 45 1011.6
20260831041410 89 95 0.0 5.0 0.00 0.00 0.00 45 1011.3
20260831040906 89 129 3.0 6.0 0.00 0.00 0.00 45 1011.7
20260831040400 89 145 2.0 7.0 0.00 0.00 0.00 45 1011.4
20260831035858 89 165 0.0 0.0 0.00 0.00 0.00 45 1011.5
20260831035357 89 143 4.0 6.0 0.00 0.00 0.00 44 1011.5
20260831034852 90 114 0.0 0.0 0.00 0.00 0.00 45 1011.5
20260831034347 90 127 0.0 0.0 0.00 0.00 0.00 44 1011.5
20260831033843 90 125 0.0 0.0 0.00 0.00 0.00 45 1011.5
20260831033342 90 178 0.0 1.0 0.00 0.00 0.00 44 1011.3
20260831032837 90 155 3.0 6.0 0.00 0.00 0.00 45 1011.4
20260831032332 90 142 6.0 11.0 0.00 0.00 0.00 44 1011.4
20260831031828 90 130 0.0 5.0 0.00 0.00 0.00 44 1011.5
20260831031327 90 143 5.0 11.0 0.00 0.00 0.00 44 1011.6
20260831030822 90 173 0.0 0.0 0.00 0.00 0.00 44 1011.4
20260831030320 90 107 0.0 0.0 0.00 0.00 0.00 44 1011.3
20260831025820 90 114 3.0 3.0 0.00 0.00 0.00 45 1011.5
20260831025314 90 119 3.0 10.0 0.00 0.00 0.00 45 1011.5
20260831024810 90 174 7.0 8.0 0.00 0.00 0.00 45 1011.3
20260831024309 90 141 4.0 7.0 0.00 0.00 0.00 45 1011.2
20260831023808 91 149 4.0 10.0 0.00 0.00 0.00 44 1011.3
20260831023306 91 111 1.0 8.0 0.00 0.00 0.00 45 1011.2
20260831022802 91 153 3.0 6.0 0.00 0.00 0.00 45 1011.3
20260831022300 91 129 0.0 0.0 0.00 0.00 0.00 44 1011.1
20260831021755 91 114 3.0 8.0 0.00 0.00 0.00 44 1011.2
20260831021250 91 148 6.0 9.0 0.00 0.00 0.00 44 1011.0
20260831020747 91 180 3.0 6.0 0.00 0.00 0.00 44 1010.9
20260831020245 91 74 5.0 6.0 0.00 0.00 0.00 44 1010.8
20260831015741 91 131 3.0 9.0 0.00 0.00 0.00 44 1011.0
20260831015237 91 183 0.0 0.0 0.00 0.00 0.00 44 1010.9
20260831014731 92 148 3.0 6.0 0.00 0.00 0.00 43 1010.7
20260831014226 91 158 3.0 9.0 0.00 0.00 0.00 44 1010.6
20260831013722 92 76 4.0 11.0 0.00 0.00 0.00 43 1010.4
20260831013221 92 86 0.0 9.0 0.00 0.00 0.00 43 1010.4
20260831012716 92 144 3.0 7.0 0.00 0.00 0.00 43 1010.4
20260831012212 92 117 0.0 0.0 0.00 0.00 0.00 43 1010.4
20260831011710 92 138 0.0 0.0 0.00 0.00 0.00 43 1010.6
20260831011207 93 175 0.0 0.0 0.00 0.00 0.00 43 1010.2
20260831010702 93 106 0.0 0.0 0.00 0.00 0.00 43 1010.3
20260831010157 93 146 0.0 3.0 0.00 0.00 0.00 43 1010.3
20260831005657 93 131 0.0 0.0 0.00 0.00 0.00 43 1010.1
20260831005153 93 155 0.0 0.0 0.00 0.00 0.00 42 1010.2
20260831004648 93 114 0.0 0.0 0.00 0.00 0.00 42 1010.1
20260831004144 94 108 3.0 5.0 0.00 0.00 0.00 42 1010.1
20260831003640 94 118 5.0 7.0 0.00 0.00 0.00 41 1010.2
20260831003135 94 106 1.0 3.0 0.00 0.00 0.00 42 1010.2
20260831002634 94 119 3.0 3.0 0.00 0.00 0.00 41 1010.1
20260831002129 94 118 0.0 0.0 0.00 0.00 0.00 41 1010.2
20260831001625 95 119 3.0 5.0 0.00 0.00 0.00 40 1010.3
20260831001120 95 130 0.0 0.0 0.00 0.00 0.00 41 1010.2
20260831000617 95 130 1.0 8.0 0.00 0.00 0.00 40 1009.9
20260831000117 95 97 3.0 8.0 0.00 0.00 0.00 40 1010.1
20260830235616 95 102 0.0 0.0 0.00 0.00 0.00 40 1010.2
20260830235111 95 157 0.0 0.0 0.00 0.00 0.00 40 1010.0
20260830234606 96 155 0.0 0.0 0.00 0.00 0.00 41 1010.0
20260830234101 96 189 0.0 0.0 0.00 0.00 0.00 40 1009.9
20260830233556 96 155 0.0 0.0 0.00 0.00 0.00 40 1010.2
20260830233052 96 144 0.0 0.0 0.00 0.00 0.00 40 1010.0
20260830232548 96 173 7.0 8.0 0.00 0.00 0.00 40 1009.8
20260830232044 96 167 5.0 8.0 0.00 0.00 0.00 40 1010.0
20260830231540 96 130 0.0 2.0 0.00 0.00 0.00 40 1009.8
20260830231038 97 171 5.0 7.0 0.00 0.00 0.00 39 1009.8
20260830230534 97 133 2.0 6.0 0.00 0.00 0.00 39 1009.9
20260830230029 97 122 1.0 10.0 0.00 0.00 0.00 39 1009.9
20260830225524 97 110 0.0 1.0 0.00 0.00 0.00 40 1009.9
20260830225024 97 123 4.0 6.0 0.00 0.00 0.00 39 1009.8
20260830224522 97 127 6.0 8.0 0.00 0.00 0.00 38 1010.0
20260830224019 97 148 1.0 10.0 0.00 0.00 0.00 38 1009.9
20260830223516 97 184 5.0 7.0 0.00 0.00 0.00 39 1010.0
20260830223010 97 210 2.0 6.0 0.00 0.00 0.00 39 1009.9
20260830222504 97 140 5.0 7.0 0.00 0.00 0.00 40 1009.8
20260830222000 97 261 2.0 3.0 0.00 0.00 0.00 41 1009.9
20260830221455 98 144 3.0 8.0 0.00 0.00 0.00 40 1010.0
20260830220946 98 149 0.0 3.0 0.00 0.00 0.00 40 1009.9
20260830220445 98 132 0.0 6.0 0.00 0.00 0.00 40 1010.0
20260830215942 97 130 3.0 5.0 0.00 0.00 0.00 39 1010.0
20260830215438 98 135 4.0 9.0 0.00 0.00 0.00 40 1010.1
20260830214932 98 155 2.0 3.0 0.00 0.00 0.00 40 1010.1
20260830214428 98 55 3.0 7.0 0.00 0.00 0.00 41 1010.2
20260830213923 98 153 0.0 1.0 0.00 0.00 0.00 41 1010.2
20260830213418 97 153 4.0 11.0 0.00 0.00 0.00 40 1010.2
20260830212914 98 119 8.0 11.0 0.00 0.00 0.00 41 1010.2
20260830212409 98 213 3.0 8.0 0.00 0.00 0.00 40 1010.6
20260830211908 98 123 5.0 7.0 0.00 0.00 0.00 41 1010.1
20260830211403 98 160 2.0 9.0 0.00 0.00 0.00 41 1010.2
20260830210859 98 119 0.0 5.0 0.00 0.00 0.00 41 1010.3
20260830210357 97 131 2.0 8.0 0.00 0.00 0.00 42 1010.4
20260830205855 98 133 2.0 3.0 0.00 0.00 0.00 41 1010.3
20260830205355 97 172 2.0 2.0 0.00 0.00 0.00 42 1010.7
20260830204850 98 137 5.0 7.0 0.00 0.00 0.00 41 1010.7
20260830204349 98 132 0.0 1.0 0.00 0.00 0.00 43 1010.6
20260830203844 97 102 1.0 7.0 0.00 0.00 0.00 42 1010.8
20260830203341 97 157 0.0 0.0 0.00 0.00 0.00 43 1011.0
20260830202840 97 179 3.0 5.0 0.00 0.00 0.00 43 1010.9
20260830202335 97 153 0.0 5.0 0.00 0.00 0.00 43 1010.7
20260830201831 97 217 0.0 1.0 0.00 0.00 0.00 43 1011.1
20260830201330 96 206 0.0 3.0 0.00 0.00 0.00 45 1011.1
20260830200825 96 260 2.0 11.0 0.00 0.00 0.00 43 1011.1
20260830200326 97 133 6.0 8.0 0.00 0.00 0.00 44 1011.0
20260830195821 96 150 3.0 5.0 0.00 0.00 0.00 44 1011.1
20260830195320 96 136 6.0 9.0 0.00 0.00 0.00 44 1011.4
20260830194819 97 97 1.0 5.0 0.00 0.00 0.00 44 1011.3
20260830194312 97 209 0.0 3.0 0.00 0.00 0.00 45 1011.4
20260830193807 97 188 0.0 1.0 0.00 0.00 0.00 44 1011.4
20260830193301 97 111 0.0 2.0 0.00 0.00 0.00 44 1011.6
20260830192758 96 208 1.0 3.0 0.00 0.00 0.00 44 1011.6
20260830192252 96 183 2.0 2.0 0.00 0.00 0.00 44 1011.7
20260830191748 96 193 1.0 8.0 0.00 0.00 0.00 44 1011.7
20260830191247 96 162 2.0 7.0 0.00 0.00 0.00 45 1011.8
20260830190743 95 205 3.0 6.0 0.00 0.00 0.00 46 1011.8
20260830190238 95 202 1.0 2.0 0.00 0.00 0.00 46 1011.8
20260830185736 96 136 2.0 6.0 0.00 0.00 0.00 47 1011.9
20260830185232 95 182 0.0 3.0 0.00 0.00 0.00 47 1011.7
20260830184731 95 216 2.0 5.0 0.00 0.00 0.00 46 1011.9
20260830184231 94 175 1.0 2.0 0.00 0.00 0.00 47 1011.7
20260830183726 95 200 3.0 9.0 0.00 0.00 0.00 47 1011.8
20260830183221 94 166 5.0 9.0 0.00 0.00 0.00 46 1011.9
20260830182716 95 115 4.0 7.0 0.00 0.00 0.00 46 1011.9
20260830182212 94 192 0.0 0.0 0.00 0.00 0.00 47 1012.0
20260830181708 94 154 1.0 8.0 0.00 0.00 0.00 46 1012.0
20260830181203 94 197 2.0 3.0 0.00 0.00 0.00 48 1012.1
20260830180701 94 193 1.0 3.0 0.00 0.00 0.00 48 1012.2
20260830180157 93 167 4.0 6.0 0.00 0.00 0.00 48 1012.1
20260830175656 93 177 0.0 0.0 0.00 0.00 0.00 50 1012.2
20260830175150 92 169 4.0 6.0 0.00 0.00 0.00 48 1012.2
20260830174645 92 124 5.0 8.0 0.00 0.00 0.00 50 1012.4
20260830174141 92 139 3.0 9.0 0.00 0.00 0.00 49 1012.3
20260830173636 91 165 2.0 8.0 0.00 0.00 0.00 51 1012.2
20260830173131 92 218 2.0 6.0 0.00 0.00 0.00 50 1012.3
20260830172628 92 185 0.0 0.0 0.00 0.00 0.00 50 1012.4
20260830172125 91 168 1.0 3.0 0.00 0.00 0.00 51 1012.4
20260830171625 91 255 2.0 5.0 0.00 0.00 0.00 50 1012.5
20260830171120 91 216 4.0 10.0 0.00 0.00 0.00 49 1012.5
20260830170614 91 209 2.0 7.0 0.00 0.00 0.00 51 1012.7
20260830170114 91 228 3.0 6.0 0.00 0.00 0.00 50 1012.9
20260830165614 90 182 4.0 9.0 0.00 0.00 0.00 52 1013.0
20260830165109 90 193 0.0 1.0 0.00 0.00 0.00 51 1013.1
20260830164605 89 147 0.0 3.0 0.00 0.00 0.00 53 1013.0
20260830164101 89 53 5.0 7.0 0.00 0.00 0.00 52 1013.0
20260830163558 89 184 0.0 5.0 0.00 0.00 0.00 52 1013.0
20260830163057 89 213 3.0 6.0 0.00 0.00 0.00 53 1013.2
20260830162553 88 98 6.0 7.0 0.00 0.00 0.00 53 1012.8
20260830162048 88 132 7.0 10.0 0.00 0.00 0.00 54 1013.1
20260830161548 88 233 3.0 5.0 0.00 0.00 0.00 53 1013.1
20260830161043 87 175 4.0 8.0 0.00 0.00 0.00 54 1012.9
20260830160539 87 177 2.0 9.0 0.00 0.00 0.00 55 1013.0
20260830160034 87 145 4.0 7.0 0.00 0.00 0.00 55 1013.0
20260830155525 86 118 2.0 6.0 0.00 0.00 0.00 55 1013.0
20260830155021 86 196 0.0 1.0 0.00 0.00 0.00 55 1012.9
20260830154516 86 153 5.0 6.0 0.00 0.00 0.00 55 1013.1
20260830154012 86 153 5.0 7.0 0.00 0.00 0.00 56 1013.0
20260830153508 87 168 2.0 9.0 0.00 0.00 0.00 55 1012.8
20260830153007 87 101 0.0 6.0 0.00 0.00 0.00 55 1012.5
20260830152501 86 136 5.0 10.0 0.00 0.00 0.00 55 1012.7
20260830152000 87 30 0.0 6.0 0.00 0.00 0.00 54 1012.9
20260830151454 86 146 0.0 3.0 0.00 0.00 0.00 57 1012.5
20260830150949 86 119 9.0 11.0 0.00 0.00 0.00 56 1012.5
20260830150444 85 54 3.0 5.0 0.00 0.00 0.00 57 1012.4
20260830145938 84 136 5.0 7.0 0.00 0.00 0.00 58 1012.3
20260830145433 84 75 0.0 0.0 0.00 0.00 0.00 57 1012.4
20260830144928 84 138 2.0 3.0 0.00 0.00 0.00 57 1012.5
20260830144425 83 127 5.0 7.0 0.00 0.00 0.00 58 1012.5
20260830143925 83 137 1.0 6.0 0.00 0.00 0.00 57 1012.5
20260830143420 82 221 3.0 8.0 0.00 0.00 0.00 59 1012.4
20260830142918 82 111 9.0 10.0 0.00 0.00 0.00 58 1012.3
20260830142414 82 187 3.0 6.0 0.00 0.00 0.00 58 1012.4
20260830141908 82 123 3.0 6.0 0.00 0.00 0.00 60 1012.8
20260830141404 81 195 4.0 8.0 0.00 0.00 0.00 60 1012.7
20260830140859 80 131 3.0 5.0 0.00 0.00 0.00 61 1012.7
20260830140354 80 159 3.0 8.0 0.00 0.00 0.00 61 1012.9
20260830135848 79 110 5.0 8.0 0.00 0.00 0.00 61 1012.9
20260830135344 80 137 1.0 5.0 0.00 0.00 0.00 62 1012.9
20260830134839 80 145 0.0 0.0 0.00 0.00 0.00 60 1012.9
20260830134334 80 201 3.0 3.0 0.00 0.00 0.00 60 1012.8
20260830133830 80 95 3.0 5.0 0.00 0.00 0.00 59 1013.1
20260830133325 80 132 0.0 0.0 0.00 0.00 0.00 59 1012.9
20260830132820 80 102 0.0 2.0 0.00 0.00 0.00 60 1012.9
20260830132316 80 97 1.0 5.0 0.00 0.00 0.00 61 1013.0
20260830131815 80 187 5.0 7.0 0.00 0.00 0.00 59 1012.9
20260830131310 79 95 3.0 7.0 0.00 0.00 0.00 59 1013.1
20260830130805 79 151 0.0 0.0 0.00 0.00 0.00 60 1013.0
20260830130300 79 179 2.0 3.0 0.00 0.00 0.00 60 1013.1
20260830125759 79 146 2.0 6.0 0.00 0.00 0.00 60 1013.1
20260830125255 79 180 0.0 0.0 0.00 0.00 0.00 61 1013.1
20260830124752 79 172 0.0 3.0 0.00 0.00 0.00 60 1012.9
20260830124247 79 157 2.0 6.0 0.00 0.00 0.00 59 1013.1
20260830123744 79 147 3.0 5.0 0.00 0.00 0.00 59 1013.1
20260830123240 80 150 1.0 5.0 0.00 0.00 0.00 59 1013.2
20260830122738 80 134 3.0 5.0 0.00 0.00 0.00 58 1013.1
20260830122232 80 115 8.0 11.0 0.00 0.00 0.00 58 1013.3
20260830121728 80 148 1.0 2.0 0.00 0.00 0.00 58 1013.4
20260830121227 80 110 0.0 0.0 0.00 0.00 0.00 58 1013.0
20260830120722 80 203 3.0 5.0 0.00 0.00 0.00 58 1013.3
20260830120218 80 119 2.0 6.0 0.00 0.00 0.00 58 1013.2
20260830115715 80 114 0.0 3.0 0.00 0.00 0.00 57 1013.1
20260830115210 80 120 0.0 1.0 0.00 0.00 0.00 57 1013.3
20260830114707 80 125 0.0 0.0 0.00 0.00 0.00 57 1013.2
20260830114206 80 146 7.0 10.0 0.00 0.00 0.00 56 1013.2
20260830113702 80 126 0.0 0.0 0.00 0.00 0.00 57 1013.0
20260830113202 80 115 1.0 6.0 0.00 0.00 0.00 56 1013.1
20260830112658 80 171 2.0 3.0 0.00 0.00 0.00 56 1013.0
20260830112154 80 101 2.0 3.0 0.00 0.00 0.00 56 1013.0
20260830111649 80 156 5.0 6.0 0.00 0.00 0.00 55 1013.1
20260830111145 80 165 0.0 0.0 0.00 0.00 0.00 56 1013.0
20260830110640 80 154 0.0 1.0 0.00 0.00 0.00 56 1013.0
20260830110136 80 116 0.0 1.0 0.00 0.00 0.00 56 1013.1
20260830105635 80 121 3.0 6.0 0.00 0.00 0.00 55 1012.9
20260830105131 80 144 0.0 0.0 0.00 0.00 0.00 55 1013.2
20260830104628 81 146 0.0 5.0 0.00 0.00 0.00 55 1013.3
20260830104125 81 100 0.0 0.0 0.00 0.00 0.00 55 1012.9
20260830103623 81 123 2.0 5.0 0.00 0.00 0.00 55 1013.0
20260830103118 81 155 1.0 3.0 0.00 0.00 0.00 55 1012.9
20260830102612 81 113 3.0 6.0 0.00 0.00 0.00 54 1013.0
20260830102108 81 147 3.0 6.0 0.00 0.00 0.00 54 1013.0
20260830101603 81 156 2.0 5.0 0.00 0.00 0.00 54 1012.8
20260830101058 81 147 6.0 10.0 0.00 0.00 0.00 54 1013.1
20260830100556 81 143 0.0 0.0 0.00 0.00 0.00 55 1012.9
20260830100056 81 106 0.0 5.0 0.00 0.00 0.00 54 1012.9
20260830095551 81 121 1.0 3.0 0.00 0.00 0.00 54 1012.8
20260830095048 81 190 0.0 0.0 0.00 0.00 0.00 54 1012.7
20260830094544 81 126 0.0 0.0 0.00 0.00 0.00 55 1012.9
20260830094043 81 129 0.0 0.0 0.00 0.00 0.00 55 1012.8
20260830093538 81 116 5.0 6.0 0.00 0.00 0.00 54 1012.8
20260830093035 81 97 0.0 0.0 0.00 0.00 0.00 55 1012.8
20260830092530 81 110 0.0 0.0 0.00 0.00 0.00 55 1012.4
20260830092028 81 117 0.0 0.0 0.00 0.00 0.00 55 1012.8
20260830091527 81 158 0.0 0.0 0.00 0.00 0.00 55 1012.8
20260830091027 80 188 0.0 1.0 0.00 0.00 0.00 55 1012.8
20260830090522 81 152 0.0 0.0 0.00 0.00 0.00 55 1012.8
20260830090017 81 95 0.0 0.0 0.00 0.00 0.00 55 1012.7
20260830085512 81 99 2.0 6.0 0.00 0.00 0.00 55 1012.5
20260830085008 81 167 5.0 7.0 0.00 0.00 0.00 55 1012.5
20260830084503 81 103 3.0 5.0 0.00 0.00 0.00 55 1012.8
20260830083958 81 163 2.0 7.0 0.00 0.00 0.00 56 1012.8
20260830083454 81 226 0.0 0.0 0.00 0.00 0.00 55 1012.8
20260830082953 81 122 0.0 10.0 0.00 0.00 0.00 55 1012.5
20260830082448 81 169 1.0 5.0 0.00 0.00 0.00 54 1012.8
20260830081942 81 129 1.0 7.0 0.00 0.00 0.00 54 1012.9
20260830081437 81 159 0.0 2.0 0.00 0.00 0.00 54 1012.7
20260830080932 81 105 0.0 0.0 0.00 0.00 0.00 55 1012.8
20260830080428 81 137 0.0 0.0 0.00 0.00 0.00 55 1012.4
20260830075927 80 178 0.0 0.0 0.00 0.00 0.00 56 1012.4
20260830075422 80 113 0.0 0.0 0.00 0.00 0.00 57 1012.4
20260830074912 80 108 2.0 6.0 0.00 0.00 0.00 57 1012.3
20260830074407 80 127 2.0 7.0 0.00 0.00 0.00 57 1012.4